FW4376 Weather Reports


time (UTC)temp
F
wind
direction
speed
knots
gust
knots
rain 1hr
in
rain 24hr
in
rain mn
in
humidity
%
barometer
mb
20260906204506 100 120 1.7 5.2 0.00 0.00 0.00 45 1011.3
20260906203004 99 277 1.7 5.2 0.00 0.00 0.00 47 1011.6
20260906201504 99 175 0.9 3.5 0.00 0.00 0.00 48 1011.7
20260906200004 98 119 0.9 4.3 0.00 0.00 0.00 50 1011.9
20260906194502 99 100 0.9 6.1 0.00 0.00 0.00 49 1012.0
20260906193102 99 128 0.9 5.2 0.00 0.00 0.00 48 1012.2
20260906191558 99 128 2.6 5.2 0.00 0.00 0.00 48 1012.3
20260906190051 98 212 0.9 5.2 0.00 0.00 0.00 50 1012.4
20260906184550 99 96 0.9 4.3 0.00 0.00 0.00 50 1012.5
20260906183056 99 99 1.7 4.3 0.00 0.00 0.00 49 1012.6
20260906181549 98 19 0.9 6.1 0.00 0.00 0.00 50 1012.9
20260906180042 98 108 0.9 5.2 0.00 0.00 0.00 52 1013.0
20260906174541 97 105 0.0 2.6 0.00 0.00 0.00 53 1013.3
20260906173034 96 221 0.9 4.3 0.00 0.00 0.00 55 1013.5
20260906171534 96 104 1.7 3.5 0.00 0.00 0.00 55 1013.8
20260906170032 95 106 0.9 3.5 0.00 0.00 0.00 57 1014.0
20260906164532 94 132 0.9 5.2 0.00 0.00 0.00 58 1014.1
20260906163043 94 157 0.9 2.6 0.00 0.00 0.00 58 1014.1
20260906161532 94 115 0.9 2.6 0.00 0.00 0.00 60 1014.1
20260906160028 93 127 0.9 3.5 0.00 0.00 0.00 61 1014.1
20260906154521 92 212 0.0 1.7 0.00 0.00 0.00 64 1014.0
20260906153018 90 127 0.0 1.7 0.00 0.00 0.00 68 1014.0
20260906151515 90 213 0.9 3.5 0.00 0.00 0.00 69 1013.9
20260906150016 89 153 0.0 2.6 0.00 0.00 0.00 70 1014.0
20260906144508 88 101 0.0 1.7 0.00 0.00 0.00 72 1014.1
20260906143004 87 139 0.0 1.7 0.00 0.00 0.00 75 1014.0
20260906141501 85 167 0.0 1.7 0.00 0.00 0.00 78 1013.9
20260906140107 82 149 0.0 0.9 0.00 0.00 0.00 83 1013.8
20260906134608 79 132 0.0 0.9 0.00 0.00 0.00 88 1013.7
20260906133055 77 136 0.0 0.9 0.00 0.00 0.00 91 1013.7
20260906131551 76 127 0.0 0.9 0.00 0.00 0.00 93 1013.7
20260906124549 75 105 0.0 0.9 0.00 0.00 0.00 94 1013.3
20260906123049 75 105 0.0 0.9 0.00 0.00 0.00 93 1013.1
20260906121549 75 105 0.0 0.9 0.00 0.00 0.00 93 1013.1
20260906120045 75 105 0.0 0.9 0.00 0.00 0.00 93 1012.9
20260906114544 75 105 0.0 0.0 0.00 0.00 0.00 92 1012.9
20260906113042 75 105 0.0 0.9 0.00 0.00 0.00 92 1012.8
20260906111540 75 105 0.0 0.9 0.00 0.00 0.00 92 1012.7
20260906110038 76 105 0.0 0.9 0.00 0.00 0.00 91 1012.5
20260906104536 76 105 0.0 0.9 0.00 0.00 0.00 91 1012.6
20260906103035 76 105 0.0 0.9 0.00 0.00 0.00 91 1012.5
20260906101534 77 105 0.0 0.9 0.00 0.00 0.00 91 1012.4
20260906100039 77 114 0.0 1.7 0.00 0.00 0.00 91 1012.3
20260906094532 77 148 0.0 1.7 0.00 0.00 0.00 91 1012.1
20260906093045 77 101 0.0 1.7 0.00 0.00 0.00 91 1012.1
20260906091530 77 113 0.0 1.7 0.00 0.00 0.00 91 1012.1
20260906090029 77 210 0.0 0.9 0.00 0.00 0.00 90 1012.0
20260906084630 77 172 0.0 1.7 0.00 0.00 0.00 90 1011.8
20260906083026 77 120 0.0 2.6 0.00 0.00 0.00 90 1011.8
20260906081543 77 231 0.0 1.7 0.00 0.00 0.00 89 1012.0
20260906080024 78 153 0.0 0.9 0.00 0.00 0.00 89 1012.1
20260906074523 78 203 0.0 1.7 0.00 0.00 0.00 88 1012.1
20260906073036 78 101 0.0 1.7 0.00 0.00 0.00 88 1012.1
20260906071519 78 257 0.9 2.6 0.00 0.00 0.00 88 1012.2
20260906070027 79 122 0.0 0.9 0.00 0.00 0.00 87 1012.2
20260906064520 79 238 0.0 0.9 0.00 0.00 0.00 87 1012.0
20260906063017 79 120 0.0 0.9 0.00 0.00 0.00 86 1012.1
20260906061515 79 251 0.0 1.7 0.00 0.00 0.00 85 1012.1
20260906060013 80 124 0.0 0.0 0.00 0.00 0.00 84 1012.5
20260906054515 80 105 0.0 1.7 0.00 0.00 0.00 84 1012.6
20260906053009 80 118 0.0 2.6 0.00 0.00 0.00 83 1012.4
20260906051511 81 120 0.0 2.6 0.00 0.00 0.00 82 1012.4
20260906050004 81 107 0.0 2.6 0.00 0.00 0.00 82 1012.0
20260906044503 81 121 0.0 2.6 0.00 0.00 0.00 81 1012.3
20260906043001 82 248 0.9 3.5 0.00 0.00 0.00 80 1012.0
20260906041501 82 243 0.9 3.5 0.00 0.00 0.00 79 1012.1
20260906040115 82 264 0.0 1.7 0.00 0.00 0.00 78 1012.4
20260906040003 82 264 0.9 1.7 0.00 0.00 0.00 78 1012.5
20260906034600 83 148 0.0 2.6 0.00 0.00 0.00 78 1012.4
20260906033059 83 123 0.0 2.6 0.00 0.00 0.00 77 1012.2
20260906031607 83 200 0.9 4.3 0.00 0.00 0.00 76 1012.2
20260906030107 84 120 0.9 2.6 0.00 0.00 0.00 74 1012.1
20260906024557 84 227 0.0 2.6 0.00 0.00 0.00 73 1011.9
20260906023120 85 149 0.9 2.6 0.00 0.00 0.00 72 1011.8
20260906021557 85 118 0.9 4.3 0.00 0.00 0.00 71 1011.7
20260906020057 86 151 1.7 4.3 0.00 0.00 0.00 70 1011.5
20260906014620 86 99 0.9 5.2 0.00 0.00 0.00 69 1011.5
20260906013058 87 120 0.9 5.2 0.00 0.00 0.00 67 1011.0
20260906011557 87 224 2.6 6.1 0.00 0.00 0.00 66 1010.8
20260906010054 88 218 1.7 5.2 0.00 0.00 0.00 64 1010.7
20260906004607 89 177 0.9 5.2 0.00 0.00 0.00 63 1010.7
20260906003054 90 100 1.7 7.8 0.00 0.00 0.00 62 1010.8
20260906001552 91 146 3.5 8.7 0.00 0.00 0.00 60 1010.7
20260906000104 93 167 1.7 10.4 0.00 0.00 0.00 56 1010.4
20260905234556 95 127 1.7 5.2 0.00 0.00 0.00 54 1010.2
20260905233051 98 100 0.9 3.5 0.00 0.00 0.00 47 1010.0
20260905231549 99 113 0.0 3.5 0.00 0.00 0.00 45 1009.9
20260905230049 101 116 0.0 5.2 0.00 0.00 0.00 45 1010.0
20260905224602 101 170 0.9 3.5 0.00 0.00 0.00 42 1010.0
20260905223047 102 220 0.9 3.5 0.00 0.00 0.00 42 1009.8
20260905221546 101 219 0.0 0.9 0.00 0.00 0.00 45 1009.8
20260905220045 101 324 0.0 1.7 0.00 0.00 0.00 44 1010.0
20260905214546 101 217 0.0 2.6 0.00 0.00 0.00 43 1010.1
20260905213044 101 309 0.9 2.6 0.00 0.00 0.00 46 1010.2
20260905211542 102 127 0.0 2.6 0.00 0.00 0.00 43 1010.4
20260905210038 101 208 0.0 3.5 0.00 0.00 0.00 47 1010.6